Simultaneous Nadir Overpasses (SNOs) Predictions

Prediction of SNOs between LANDSAT-8 and METOP-A Satellite Orbit:

Table of predicted SNOs for the next 14.0 days since TLE Epoch: 7/26/2019
Index Date (LANDSAT-8) Time (LANDSAT-8) Lat,Lon (LANDSAT-8) SZA (LANDSAT-8 ) Date (METOP-A) Time (METOP-A) Lat,Lon (METOP-A) SZA (METOP-A ) Distance(km) Time Diff (sec)
1 07/28/2019 23:41:28 -81.48, 51.23 114.81 07/28/2019 23:40:36 -81.47, 51.15 114.84 1.47 52
2 07/29/2019 00:30:55 81.46,-141.37 65.17 07/29/2019 00:31:16 81.47,-141.18 65.21 3.37 21
3 07/31/2019 19:15:45 -81.47, 117.44 114.16 07/31/2019 19:14:59 -81.47, 117.35 114.19 1.65 46
4 07/31/2019 20:05:11 81.47, -74.80 65.87 07/31/2019 20:05:38 81.47, -74.61 65.90 3.13 27
5 08/03/2019 14:50:02 -81.48,-175.85 113.40 08/03/2019 14:49:21 -81.47,-175.65 113.40 3.30 41
6 08/03/2019 15:39:29 81.46, -8.51 66.57 08/03/2019 15:40:02 81.47, -8.46 66.59 1.17 33
7 08/06/2019 10:24:20 -81.48,-109.42 112.65 08/06/2019 10:23:45 -81.47,-109.47 112.67 1.05 35
8 08/06/2019 11:13:47 81.46, 57.89 67.32 08/06/2019 11:14:25 81.47, 58.08 67.37 3.27 38
9 08/09/2019 05:58:39 -81.47, -43.27 111.89 08/09/2019 05:58:09 -81.47, -43.29 111.90 0.84 30




NCC Satellite Simultaneous Nadir Overpasses (SNOs) Prediction Service
